Location: Unspecified
(38.6830°S, 0.0000°E)
Time: 02:57:15
(UTC+00:00)

Envisat - Pass Details

Date: 05 June 2019
Orbit: 764 x 766 km, 98.1° (Epoch: 16 June)

Event Time Altitude Azimuth Distance (km) Brightness Sun altitude
Exits shadow 20:21:02 13° 302° (WNW) 2,128 5.7 -41.3°
Drops below altitude 10° 20:21:36 10° 306° (NW) 2,313 5.9 -41.4°
Sets 20:24:09 0° 317° (NW) 3,230 6.7 -41.9°
